Flag for Canada Weather past 2 weeks in Campbell River, British Columbia, Canada

Now
43 °F

Passing clouds.


Feels Like: 43 °F
Forecast: 44 / 51 °F
Wind: 2 mph from Southeast

Location: Comox


UV Index: 0 (Low)

Visibility: 20 mi


Pressure: 30.16 "Hg

Humidity: 71%

Dew point: 34 °F

Location of Campbell RiverLocation

Historic Weather in Campbell River

°F

Campbell River temperature yesterday

Maximum temperature yesterday: 52 °F (at 4:00 PM)
Minimum temperature yesterday: 46 °F (at 3:00 AM)
Average temperature yesterday: 49 °F

Past Weeks' High & Low Weather Summary

 TemperatureHumidityPressure
High63 °F (Apr 12, 4:00 PM)100% (Apr 6, 12:00 AM)30.36 "Hg (Apr 6, 12:00 AM)
Low36 °F (Apr 18, 5:00 AM)32% (Apr 12, 6:00 PM)29.68 "Hg (Apr 17, 3:00 PM)
Average48 °F79%30.07 "Hg
* Reported Apr 5 3:00 AM — Apr 20 3:00 AM, Campbell River, Weather by CustomWeather, © 2014

Note: Actual official high and low records may vary slightly from our data, if they occured in-between our weather recording intervals... More about our weather records

Advertising

Historic Weather Conditions — Data for Previous 24 hours

 ConditionsComfort  
Time TempWeatherWind HumidityBarometerVisibility
3:00 AM
Apr 20
43 °FPassing clouds.3 mph71%30.14 "Hg20 mi
2:00 AM46 °FPassing clouds.3 mph62%30.12 "Hg20 mi
1:00 AM46 °FPassing clouds.7 mph62%30.09 "Hg20 mi
12:00 AM48 °FPassing clouds.12 mph62%30.04 "Hg20 mi
11:00 PM
Apr 19
50 °FPassing clouds.14 mph58%30.00 "Hg20 mi
10:00 PM48 °FPassing clouds.9 mph66%29.97 "Hg20 mi
9:00 PM48 °FPartly sunny.5 mph71%29.93 "Hg20 mi
8:00 PM50 °FPartly sunny.12 mph71%29.88 "Hg20 mi
7:00 PM50 °FBroken clouds.14 mph82%29.85 "Hg20 mi
6:00 PM50 °FBroken clouds.17 mph76%29.83 "Hg15 mi
5:00 PM50 °FCloudy.23 mph76%29.80 "Hg15 mi
4:00 PM52 °FMostly cloudy.24 mph72%29.77 "Hg15 mi
3:00 PM50 °FSprinkles. Mostly cloudy.22 mph71%29.76 "Hg15 mi
2:00 PM50 °FSprinkles. Mostly cloudy.21 mph71%29.73 "Hg20 mi
1:00 PM50 °FSprinkles. Mostly cloudy.20 mph71%29.72 "Hg20 mi
12:00 PM50 °FMostly cloudy.18 mph71%29.71 "Hg20 mi
11:00 AM50 °FMostly cloudy.12 mph67%29.71 "Hg20 mi
10:00 AM48 °FMostly cloudy.16 mph71%29.72 "Hg20 mi
9:00 AM48 °FOvercast.12 mph76%29.75 "Hg20 mi
8:00 AM48 °FPartly sunny.10 mph76%29.76 "Hg20 mi
7:00 AM46 °FPassing clouds.13 mph82%29.78 "Hg15 mi
6:00 AM48 °FSprinkles. Passing clouds.17 mph76%29.78 "Hg15 mi
5:00 AM48 °FPassing clouds.14 mph76%29.79 "Hg20 mi
4:00 AM48 °FPassing clouds.9 mph76%29.81 "Hg20 mi
Weather by CustomWeather, © 2014

See weather overview